Flag for Germany Weather past 2 weeks in Bramsche, Lower Saxony, Germany

Now
40 °F

Overcast.


Feels Like: 36 °F
Forecast: 35 / 38 °F
Wind: 6 mph from Southwest

Location: Muenster / Osnabrueck

Current Time: Jan 28, 2015 at 10:51:17 AM

Latest Report: Jan 28, 2015 at 10:00 AM


Visibility: 6 mi

Pressure: 29.83 "Hg

Humidity: 86%

Dew point: 36 °F

Location of BramscheLocation

Historic Weather in Bramsche — Graph

°F

Bramsche temperature yesterday

Maximum temperature yesterday: 43 °F (at 2:00 PM)
Minimum temperature yesterday: 35 °F (at 9:00 AM)
Average temperature yesterday: 38 °F

Past Weeks' High & Low Weather Summary

 TemperatureHumidityPressure
High49 °F (Jan 15, 1:00 PM)100% (Jan 20, 10:00 AM)30.38 "Hg (Jan 20, 10:00 AM)
Low23 °F (Jan 21, 2:00 AM)59% (Jan 21, 2:00 PM)29.38 "Hg (Jan 15, 5:00 PM)
Average36 °F86%29.96 "Hg
* Reported Jan 13 9:00 AM — Jan 28 9:00 AM, Bramsche, Weather by CustomWeather, © 2014

Note: Actual official high and low records may vary slightly from our data, if they occured in-between our weather recording intervals... More about our weather records

Advertising

Bramsche weather history for previous 24 hours

 ConditionsComfort  
Time TempWeatherWind HumidityBarometerVisibility
9:00 AM
Jan 28
40 °FLow clouds.6 mph90%29.87 "Hg5 mi
8:00 AM40 °FLow clouds.5 mph90%29.91 "Hg4 mi
7:00 AM39 °FRain. Low clouds.6 mph93%29.93 "Hg2 mi
6:00 AM39 °FFog.5 mph93%29.97 "Hg2 mi
5:00 AM38 °FLow clouds.5 mph94%29.99 "Hg3 mi
4:00 AM38 °FRain. Low clouds.3 mph95%30.04 "Hg3 mi
3:00 AM38 °FLow clouds.3 mph93%30.07 "Hg5 mi
2:00 AM38 °FLow clouds.3 mph91%30.10 "Hg5 mi
1:00 AM38 °FFog.3 mph95%30.12 "Hg4 mi
12:00 AM39 °FFog.2 mph94%30.13 "Hg3 mi
11:00 PM
Jan 27
38 °FFog.2 mph95%30.14 "Hg3 mi
10:00 PM38 °FLow clouds.2 mph94%30.16 "Hg5 mi
9:00 PM38 °FLow clouds.3 mph96%30.16 "Hg6 mi
8:00 PM38 °FLow clouds.3 mph94%30.16 "Hg9 mi
7:00 PM38 °FOvercast.3 mph93%30.17 "Hg9 mi
6:00 PM39 °FOvercast.2 mph91%30.16 "Hg9 mi
5:00 PM42 °FOvercast.5 mph86%30.14 "Hg9 mi
4:00 PM43 °FOvercast.5 mph79%30.13 "Hg16 mi
3:00 PM43 °FOvercast.5 mph78%30.14 "Hg16 mi
2:00 PM43 °FPartly sunny.5 mph79%30.14 "Hg16 mi
1:00 PM42 °FOvercast.3 mph83%30.14 "Hg16 mi
12:00 PM40 °FOvercast.3 mph86%30.15 "Hg12 mi
11:00 AM39 °FOvercast.5 mph90%30.15 "Hg9 mi
10:00 AM37 °FOvercast.3 mph93%30.15 "Hg9 mi
Weather by CustomWeather, © 2014

See weather overviewHow to use our weather pages